Regional Weather Roundup
Issued by NWS San Diego, CA

Home | Current Version | Previous Version | Text Only | Print | Product List | Glossary On
Versions: 1 2 3 4 5 6 7 8 9 10 11 12 13 14 15 16 17 18 19 20 21 22 23 24 25 26 27 28 29 30 31 32 33 34 35 36 37 38 39 40 41 42 43 44 45 46 47 48 49 50
000
ASUS46 KSGX 011810
RWRSGX

SAN DIEGO HOURLY WEATHER ROUNDUP
NATIONAL WEATHER SERVICE SAN DIEGO CA
1000 AM PST SUN FEB 01 2015

NOTE: "FAIR" INDICATES FEW OR NO CLOUDS BELOW 12,000 FEET WITH NO
SIGNIFICANT WEATHER AND/OR OBSTRUCTIONS TO VISIBILITY.

CAZ042-043-060-061-PZZ750-775-011900-

GREATER SAN DIEGO AREA

CITY           SKY/WX    TMP DP  RH WIND       PRES   REMARKS
LINDBERGH FLD  MOSUNNY   64  47  53 CALM      30.12S
POINT LOMA       N/A     67  46  46 E3          N/A
NATIONAL CITY    N/A     65  51  60 CALM      30.12R
CHULA VISTA      N/A     65  53  65 CALM      30.05R
IMPERIAL BEACH SUNNY     69  48  47 E6        30.11S
BROWN FIELD    SUNNY     65  46  50 SE6       30.11S
MIRAMAR MCAS   SUNNY     68  49  50 CALM      30.11R
MONTGOMERY FLD SUNNY     65  49  56 CALM      30.11S

$$

NORTH SAN DIEGO COUNTY

CITY           SKY/WX    TMP DP  RH WIND       PRES   REMARKS
CAMP PENDLETON SUNNY     62  49  62 VRB3      30.10F
OCEANSIDE AP   SUNNY     64  47  53 NE5       30.09F
OCEANSIDE HBR    N/A     64  52  64 SW3       30.13S
VISTA            N/A     60  52  75 CALM      30.09F
CARLSBAD       SUNNY     64  47  53 SW3       30.09S
DEL MAR          N/A     64  56  76 CALM      30.13S
LA JOLLA SCRIP   N/A     62  57  83 CALM      30.08F
FALLBROOK        N/A     65  51  60 CALM      30.12S
ESCONDIDO        N/A     66  49  54 S5        30.12F
SAN MARCOS       N/A     67  49  53 SE1       30.09F
POWAY            N/A     64  54  72 CALM      30.14S

$$

EAST SAN DIEGO COUNTY

CITY           SKY/WX    TMP DP  RH WIND       PRES   REMARKS
RAMONA         SUNNY     63  45  51 S3        30.12S
SANTEE LAKES     N/A     61  50  67 CALM      30.14R
LA MESA          N/A     65  47  52 CALM      30.06R
JAMUL            N/A     65  51  61 CALM      30.12R
DESCANSO N       N/A     62  36  38 E8        30.08R
MT. LAGUNA OBS   N/A     45  27  49 E17       29.76R
CAMPO            N/A     62  33  33 NE21      30.10R

$$

ORANGE COUNTY AND THE LOS ANGELES BASIN

CITY           SKY/WX    TMP DP  RH WIND       PRES   REMARKS
JOHN WAYNE AP  SUNNY     65  50  58 CALM      30.11R
LAGUNA BEACH     N/A     61  58  90 SE1       30.08R
LAKE FOREST FR   N/A     65  47  53 CALM      30.02R
SANTA ANA        N/A     68  54  60 CALM      30.07R
HUNTINGTON BCH   N/A     66  60  80 CALM      30.14R
LOS ALAMITOS   MOSUNNY   63  56  77 CALM      30.12R
FULLERTON      SUNNY     64  53  67 CALM      30.11R
LONG BEACH     SUNNY     63  56  78 CALM      30.12R
L.A. AP        MOSUNNY   62  52  69 E6        30.12R
L.A. DOWNTOWN  SUNNY     63  50  62 VRB5      30.12R

$$

THE INLAND EMPIRE

CITY           SKY/WX    TMP DP  RH WIND       PRES   REMARKS
CORONA         SUNNY     61  47  59 CALM      30.13R
CHINO          SUNNY     61  48  62 CALM      30.13R
ONTARIO        MOSUNNY   64  42  44 CALM      30.12R
SAN BERNARDINO SUNNY     63  41  45 NE6       30.12S
RIVERSIDE AP   SUNNY     63  45  51 CALM      30.12R
RIV CYN CREST    N/A     64  51  64 SE3         N/A
MORENO VALLEY    N/A     65  49  56 SW3       29.32S
MARCH ARB      SUNNY     58  49  71 E2        30.13R
HORSETHIEF CYN   N/A     61  44  55 E1        30.12R
PERRIS           N/A     59  50  71 S1          N/A
MENIFEE          N/A     58  51  77 CALM      30.22S
HEMET EAST       N/A     59  40  49 W2        30.13S
FRENCH VALLEY  FAIR      59  46  63 CALM      30.13S
TEMECULA         N/A     55  50  83 NW1       30.10S

$$

SAN BERNARDINO AND RIVERSIDE COUNTY MOUNTAINS

CITY           SKY/WX    TMP DP  RH WIND       PRES   REMARKS
BIG BEAR AP    SUNNY     45  23  42 NE3       30.28S
PINE COVE        N/A     53  21  29 W3        30.23S

$$

SOUTHERN DESERT INCLUDING THE COACHELLA VALLEY

CITY           SKY/WX    TMP DP  RH WIND       PRES   REMARKS
PALM SPRINGS   HVY RAIN  73  36  25 N6        30.12S
PALM DESERT      N/A     73  45  37 CALM      26.43S
THERMAL        SUNNY     70  43  37 SE3       30.09S
BLYTHE         SUNNY     63  45  51 CALM      30.14R
IMPERIAL AP    SUNNY     67  45  45 CALM      30.12R
EL CENTRO NAS  SUNNY     67  44  43 CALM      30.12R
YUMA AZ        SUNNY     65  50  58 N6        30.12R
MEXICALI       SUNNY     68  43  40 CALM      30.13

$$

UPPER DESERT

CITY           SKY/WX    TMP DP  RH WIND       PRES   REMARKS
VICTORVILLE AP SUNNY     54  37  54 SE3       30.20R
HESPERIA         N/A     57  42  57 E1        30.35S
APPLE VALLEY     N/A     55  37  50 CALM      30.21F
PALMDALE       SUNNY     52  37  56 NW5       30.21R
LANCASTER      SUNNY     52  37  56 CALM      30.22R
EDWARDS AFB    MOSUNNY   46  39  76 N3        30.20R
DAGGETT        SUNNY     57  38  48 W9        30.19R
29 PALMS N     SUNNY     59  40  49 NW5       30.24S
NEEDLES        SUNNY     64  33  31 N12       30.16R

$$

REGIONAL REPORTS

CITY           SKY/WX    TMP DP  RH WIND       PRES   REMARKS
SANTA BARBARA  SUNNY     63  56  78 CALM      30.11R
SANDBERG       SUNNY     57  31  37 NE9       30.23R
MT. WILSON       N/A     61  16  17 NW1         N/A
LAS VEGAS NV   MOSUNNY   57  31  37 S6        30.17S
PHOENIX AZ     CLOUDY    53  52  96 CALM      30.12R FOG
TIJUANA        SUNNY     63  45  51 E5        30.14R

$$

OFFSHORE ISLANDS

CITY           SKY/WX    TMP DP  RH WIND       PRES   REMARKS
CATALINA ARPT  SUNNY     66  40  38 W9        30.15R
SAN NICOLAS IS SUNNY    N/A N/A N/A N3        30.12R

$$

MARINE AND OFFSHORE BUOY REPORTS

STATION/POSITION SKY/WX   TEMP    WIND        PRES    SWELL
                          AIR SEA DIR/SP/G            HT/PER/DIR
                          (F)     (DEG/KT/KT) (MB)    (FT/S/D)
TANNER BANKS               62 62  310/  8/ 10 1020.1R   7/270/13
S CLEMENTE BASIN           62 63   10/  2/  4 1019.4R   3/270/13
SAN NICOLAS IS.               62                N/A     3/280/13
SO. S. ROSA ISLA           60 61  320/  8/ 10 1019.1R   5/14
W. S. BARBARA CH           60 60  320/ 12/ 14 1018.9R   5/280/13
S. MONICA BASIN            62 62   40/  4/  4 1020.2R   3/280/13
S PEDRO CHANNEL               62                N/A     2/260/14
DANA POINT                    62                N/A     2/250/13
CMP PENDLETON NS              62                N/A     2/230/13
OCEANSIDE OFFSHR              62                N/A     2/240/13
TORREY PINES OTR              62                N/A     2/280/13
LA JOLLA 1                 63 62  280/  4/  4 1019.6S
SAN DIEGO BAY                 62              1020.2S
POINT LOMA SOUTH              63                N/A     2/270/14

$$




USA.gov is the U.S. government's official web portal to all federal, state and local government web resources and services.